| time (UTC) | temp F | wind direction | speed MPH | gust MPH | rain 1hr in | rain 24hr in | rain mn in | humidity % | barometer mb |
| 20260506114031 | 44 | 72 | 0.0 | 0.0 | 0.00 | 0.02 | 0.02 | 95 | 1015.5 |
| 20260506113528 | 44 | 72 | 0.0 | 0.0 | 0.00 | 0.02 | 0.02 | 95 | 1015.5 |
| 20260506113026 | 44 | 72 | 0.0 | 0.0 | 0.00 | 0.02 | 0.02 | 95 | 1015.4 |
| 20260506112522 | 44 | 72 | 0.0 | 0.0 | 0.00 | 0.02 | 0.02 | 95 | 1015.3 |
| 20260506112019 | 45 | 72 | 0.0 | 0.0 | 0.00 | 0.02 | 0.02 | 94 | 1015.6 |
| 20260506111518 | 45 | 72 | 0.0 | 0.0 | 0.00 | 0.02 | 0.02 | 95 | 1015.7 |
| 20260506111014 | 45 | 72 | 0.0 | 0.0 | 0.00 | 0.02 | 0.02 | 94 | 1015.7 |
| 20260506110512 | 45 | 72 | 0.0 | 0.0 | 0.00 | 0.02 | 0.02 | 93 | 1015.5 |
| 20260506110009 | 45 | 71 | 0.0 | 0.0 | 0.00 | 0.02 | 0.02 | 92 | 1015.7 |
| 20260506105505 | 45 | 78 | 0.0 | 0.0 | 0.00 | 0.02 | 0.02 | 91 | 1015.7 |
| 20260506105002 | 45 | 63 | 0.0 | 0.0 | 0.00 | 0.02 | 0.02 | 91 | 1015.8 |
| 20260506104500 | 45 | 57 | 0.0 | 0.0 | 0.00 | 0.02 | 0.02 | 91 | 1016.1 |
| 20260506103958 | 45 | 68 | 0.0 | 0.0 | 0.00 | 0.02 | 0.02 | 91 | 1015.6 |
| 20260506103455 | 45 | 68 | 0.0 | 0.0 | 0.00 | 0.02 | 0.02 | 91 | 1015.5 |
| 20260506102952 | 45 | 28 | 1.0 | 1.0 | 0.00 | 0.02 | 0.02 | 90 | 1015.8 |
| 20260506102450 | 45 | 43 | 0.0 | 1.0 | 0.00 | 0.02 | 0.02 | 91 | 1015.7 |
| 20260506101947 | 45 | 1 | 1.0 | 1.0 | 0.00 | 0.02 | 0.02 | 92 | 1015.8 |
| 20260506101443 | 45 | 17 | 1.0 | 2.0 | 0.00 | 0.02 | 0.02 | 93 | 1015.7 |
| 20260506100941 | 45 | 31 | 0.0 | 1.0 | 0.00 | 0.02 | 0.02 | 92 | 1015.4 |
| 20260506100439 | 45 | 47 | 0.0 | 0.0 | 0.00 | 0.02 | 0.02 | 93 | 1015.2 |
| 20260506095937 | 45 | 47 | 0.0 | 0.0 | 0.00 | 0.02 | 0.02 | 94 | 1015.0 |
| 20260506095435 | 45 | 47 | 0.0 | 0.0 | 0.00 | 0.02 | 0.02 | 93 | 1015.0 |
| 20260506094931 | 45 | 47 | 0.0 | 0.0 | 0.00 | 0.02 | 0.02 | 94 | 1015.2 |
| 20260506094430 | 45 | 47 | 0.0 | 0.0 | 0.00 | 0.02 | 0.02 | 93 | 1015.1 |
| 20260506093927 | 44 | 47 | 0.0 | 0.0 | 0.00 | 0.02 | 0.02 | 93 | 1015.1 |
| 20260506093425 | 44 | 69 | 0.0 | 0.0 | 0.00 | 0.02 | 0.02 | 94 | 1015.1 |
| 20260506092922 | 44 | 37 | 0.0 | 1.0 | 0.00 | 0.02 | 0.02 | 95 | 1015.1 |
| 20260506092420 | 45 | 59 | 1.0 | 1.0 | 0.00 | 0.02 | 0.02 | 95 | 1015.1 |
| 20260506091916 | 45 | 45 | 1.0 | 1.0 | 0.00 | 0.02 | 0.02 | 95 | 1014.9 |
| 20260506091414 | 45 | 45 | 1.0 | 1.0 | 0.00 | 0.02 | 0.02 | 94 | 1015.1 |
| 20260506090911 | 45 | 48 | 0.0 | 0.0 | 0.00 | 0.02 | 0.02 | 94 | 1014.8 |
| 20260506090409 | 45 | 49 | 0.0 | 0.0 | 0.00 | 0.02 | 0.02 | 93 | 1015.1 |
| 20260506085905 | 45 | 49 | 0.0 | 0.0 | 0.00 | 0.02 | 0.02 | 93 | 1014.9 |
| 20260506085402 | 45 | 51 | 0.0 | 0.0 | 0.00 | 0.02 | 0.02 | 92 | 1014.9 |
| 20260506084858 | 45 | 52 | 0.0 | 0.0 | 0.00 | 0.02 | 0.02 | 92 | 1014.9 |
| 20260506084355 | 45 | 52 | 0.0 | 0.0 | 0.00 | 0.02 | 0.02 | 93 | 1015.0 |
| 20260506083852 | 45 | 52 | 0.0 | 0.0 | 0.00 | 0.02 | 0.02 | 93 | 1014.8 |
| 20260506083349 | 45 | 55 | 0.0 | 0.0 | 0.00 | 0.02 | 0.02 | 93 | 1014.8 |
| 20260506082846 | 45 | 57 | 0.0 | 0.0 | 0.00 | 0.02 | 0.02 | 93 | 1015.0 |
| 20260506082343 | 45 | 59 | 0.0 | 0.0 | 0.00 | 0.02 | 0.02 | 93 | 1014.7 |
| 20260506081833 | 45 | 60 | 0.0 | 0.0 | 0.00 | 0.02 | 0.02 | 93 | 1014.6 |
| 20260506081332 | 45 | 61 | 0.0 | 0.0 | 0.00 | 0.02 | 0.02 | 93 | 1014.6 |
| 20260506080829 | 45 | 61 | 0.0 | 0.0 | 0.00 | 0.02 | 0.02 | 92 | 1014.4 |
| 20260506080326 | 45 | 61 | 0.0 | 0.0 | 0.00 | 0.02 | 0.02 | 92 | 1014.2 |
| 20260506073310 | 45 | 76 | 0.0 | 0.0 | 0.00 | 0.02 | 0.02 | 89 | 1014.2 |
| 20260506072807 | 45 | 78 | 0.0 | 0.0 | 0.00 | 0.02 | 0.02 | 86 | 1013.9 |
| 20260506072306 | 45 | 77 | 0.0 | 0.0 | 0.00 | 0.02 | 0.02 | 86 | 1013.7 |
| 20260506071801 | 45 | 77 | 0.0 | 0.0 | 0.00 | 0.02 | 0.02 | 86 | 1013.7 |
| 20260506071259 | 45 | 79 | 0.0 | 0.0 | 0.00 | 0.02 | 0.02 | 85 | 1013.7 |
| 20260506070756 | 45 | 81 | 0.0 | 0.0 | 0.00 | 0.02 | 0.02 | 86 | 1013.5 |
| 20260506070253 | 45 | 70 | 0.0 | 1.0 | 0.00 | 0.02 | 0.02 | 88 | 1013.5 |
| 20260506062225 | 45 | 62 | 0.0 | 0.0 | 0.00 | 0.02 | 0.02 | 87 | 1014.5 |
| 20260506061720 | 46 | 61 | 0.0 | 0.0 | 0.00 | 0.02 | 0.02 | 85 | 1014.8 |
| 20260506061218 | 45 | 52 | 0.0 | 0.0 | 0.00 | 0.02 | 0.02 | 84 | 1014.9 |
| 20260506060717 | 45 | 49 | 0.0 | 0.0 | 0.00 | 0.02 | 0.02 | 87 | 1014.9 |
| 20260506060213 | 45 | 49 | 0.0 | 0.0 | 0.00 | 0.02 | 0.02 | 85 | 1014.8 |
| 20260506051145 | 48 | 341 | 2.0 | 5.0 | 0.05 | 0.01 | 0.01 | 74 | 1014.9 |
| 20260506050643 | 48 | 0 | 1.0 | 5.0 | 0.00 | 0.00 | 0.00 | 72 | 1014.9 |
| 20260506050140 | 49 | 343 | 4.0 | 8.0 | 0.00 | 0.00 | 0.00 | 67 | 1014.8 |
| 20260506045133 | 50 | 327 | 3.0 | 6.0 | 0.00 | 0.34 | 0.34 | 63 | 1014.7 |
| 20260506044631 | 50 | 358 | 2.0 | 3.0 | 0.07 | 0.34 | 0.34 | 61 | 1014.4 |
| 20260506044128 | 50 | 15 | 2.0 | 7.0 | 0.07 | 0.34 | 0.34 | 58 | 1014.2 |
| 20260506043625 | 50 | 293 | 4.0 | 5.0 | 0.00 | 0.33 | 0.33 | 62 | 1014.4 |
| 20260506043123 | 51 | 52 | 0.0 | 2.0 | 0.00 | 0.33 | 0.33 | 60 | 1014.5 |
| 20260506042622 | 50 | 21 | 2.0 | 5.0 | 0.05 | 0.33 | 0.33 | 61 | 1014.6 |
| 20260506042119 | 51 | 322 | 3.0 | 8.0 | 0.05 | 0.33 | 0.33 | 58 | 1014.2 |
| 20260506041618 | 51 | 47 | 0.0 | 1.0 | 0.00 | 0.32 | 0.32 | 61 | 1014.2 |
| 20260506041114 | 51 | 335 | 2.0 | 3.0 | 0.00 | 0.32 | 0.32 | 64 | 1013.9 |
| 20260506040612 | 51 | 82 | 0.0 | 0.0 | 0.00 | 0.32 | 0.32 | 59 | 1013.9 |
| 20260506040109 | 51 | 67 | 0.0 | 0.0 | 0.00 | 0.32 | 0.32 | 58 | 1013.7 |
| 20260506035605 | 51 | 62 | 0.0 | 5.0 | 0.00 | 0.32 | 0.32 | 57 | 1013.7 |
| 20260506035101 | 50 | 121 | 0.0 | 0.0 | 0.00 | 0.32 | 0.32 | 71 | 1013.9 |
| 20260506034559 | 50 | 47 | 0.0 | 0.0 | 0.00 | 0.32 | 0.32 | 69 | 1013.4 |
| 20260506034056 | 51 | 356 | 1.0 | 2.0 | 0.00 | 0.32 | 0.32 | 67 | 1013.5 |
| 20260506033553 | 51 | 46 | 0.0 | 1.0 | 0.00 | 0.32 | 0.32 | 65 | 1013.4 |
| 20260506033050 | 51 | 47 | 0.0 | 0.0 | 0.00 | 0.32 | 0.32 | 64 | 1013.0 |
| 20260506032548 | 51 | 46 | 0.0 | 1.0 | 0.00 | 0.32 | 0.32 | 64 | 1013.0 |
| 20260506032044 | 51 | 49 | 0.0 | 0.0 | 0.00 | 0.32 | 0.32 | 65 | 1012.8 |
| 20260506031542 | 51 | 45 | 0.0 | 1.0 | 0.00 | 0.32 | 0.32 | 63 | 1013.0 |
| 20260506031038 | 51 | 45 | 0.0 | 1.0 | 0.00 | 0.32 | 0.32 | 65 | 1012.7 |
| 20260506030537 | 51 | 45 | 0.0 | 1.0 | 0.00 | 0.32 | 0.32 | 64 | 1012.5 |
| 20260506030034 | 51 | 45 | 0.0 | 2.0 | 0.00 | 0.32 | 0.32 | 64 | 1012.5 |
| 20260506025531 | 51 | 39 | 1.0 | 2.0 | 0.00 | 0.32 | 0.32 | 64 | 1012.4 |
| 20260506025026 | 51 | 25 | 1.0 | 2.0 | 0.00 | 0.32 | 0.32 | 64 | 1012.3 |
| 20260506024524 | 51 | 41 | 1.0 | 2.0 | 0.00 | 0.32 | 0.32 | 64 | 1012.3 |
| 20260506024020 | 51 | 30 | 1.0 | 2.0 | 0.00 | 0.32 | 0.32 | 63 | 1012.4 |
| 20260506023516 | 51 | 39 | 1.0 | 2.0 | 0.00 | 0.32 | 0.32 | 64 | 1012.1 |
| 20260506023014 | 51 | 26 | 1.0 | 5.0 | 0.00 | 0.32 | 0.32 | 64 | 1012.2 |
| 20260506022511 | 51 | 23 | 2.0 | 3.0 | 0.00 | 0.32 | 0.32 | 65 | 1012.5 |
| 20260506022009 | 51 | 25 | 3.0 | 5.0 | 0.00 | 0.32 | 0.32 | 67 | 1012.2 |
| 20260506021506 | 50 | 35 | 1.0 | 2.0 | 0.00 | 0.32 | 0.32 | 78 | 1011.9 |
| 20260506021003 | 50 | 3 | 2.0 | 2.0 | 0.00 | 0.32 | 0.32 | 82 | 1012.1 |
| 20260506020500 | 50 | 45 | 0.0 | 0.0 | 0.00 | 0.32 | 0.32 | 89 | 1011.7 |
| 20260506015957 | 50 | 45 | 0.0 | 0.0 | 0.00 | 0.32 | 0.32 | 93 | 1011.9 |
| 20260506015456 | 50 | 45 | 0.0 | 0.0 | 0.00 | 0.32 | 0.32 | 92 | 1011.5 |
| 20260506014952 | 51 | 45 | 0.0 | 0.0 | 0.00 | 0.32 | 0.32 | 91 | 1011.6 |
| 20260506014449 | 50 | 45 | 0.0 | 0.0 | 0.00 | 0.32 | 0.32 | 90 | 1011.5 |
| 20260506013945 | 50 | 45 | 0.0 | 0.0 | 0.00 | 0.32 | 0.32 | 90 | 1011.5 |
| 20260506013443 | 51 | 45 | 0.0 | 0.0 | 0.00 | 0.32 | 0.32 | 92 | 1011.6 |
| 20260506012939 | 51 | 45 | 0.0 | 0.0 | 0.00 | 0.32 | 0.32 | 91 | 1011.3 |
| 20260506012436 | 51 | 45 | 0.0 | 0.0 | 0.00 | 0.32 | 0.32 | 91 | 1011.4 |
| 20260506011933 | 51 | 45 | 0.0 | 0.0 | 0.00 | 0.32 | 0.32 | 91 | 1011.2 |
| 20260506011430 | 51 | 45 | 0.0 | 0.0 | 0.00 | 0.32 | 0.32 | 89 | 1011.3 |
| 20260506010927 | 51 | 45 | 0.0 | 0.0 | 0.00 | 0.32 | 0.32 | 88 | 1011.4 |
| 20260506010426 | 51 | 45 | 0.0 | 0.0 | 0.00 | 0.32 | 0.32 | 88 | 1011.4 |
| 20260506005921 | 52 | 45 | 0.0 | 0.0 | 0.00 | 0.32 | 0.32 | 87 | 1011.1 |
| 20260506005420 | 52 | 45 | 0.0 | 0.0 | 0.00 | 0.32 | 0.32 | 86 | 1011.2 |
| 20260506004914 | 52 | 45 | 0.0 | 0.0 | 0.00 | 0.32 | 0.32 | 86 | 1011.4 |
| 20260506004413 | 52 | 45 | 0.0 | 0.0 | 0.00 | 0.32 | 0.32 | 85 | 1011.2 |
| 20260506003908 | 52 | 45 | 0.0 | 0.0 | 0.00 | 0.32 | 0.32 | 85 | 1011.3 |
| 20260506003404 | 52 | 45 | 0.0 | 0.0 | 0.00 | 0.32 | 0.32 | 84 | 1011.0 |
| 20260506002902 | 52 | 45 | 0.0 | 0.0 | 0.00 | 0.32 | 0.32 | 83 | 1011.1 |
| 20260506002357 | 52 | 45 | 0.0 | 0.0 | 0.00 | 0.32 | 0.32 | 83 | 1011.1 |
| 20260506001853 | 52 | 45 | 0.0 | 0.0 | 0.00 | 0.32 | 0.32 | 84 | 1011.0 |
| 20260506001350 | 52 | 44 | 0.0 | 0.0 | 0.00 | 0.32 | 0.32 | 83 | 1010.9 |
| 20260506000847 | 52 | 46 | 0.0 | 0.0 | 0.00 | 0.32 | 0.32 | 83 | 1010.9 |
| 20260506000346 | 52 | 46 | 0.0 | 0.0 | 0.00 | 0.32 | 0.32 | 83 | 1010.9 |
| 20260505235842 | 52 | 46 | 0.0 | 0.0 | 0.00 | 0.32 | 0.32 | 82 | 1010.6 |
| 20260505235340 | 52 | 46 | 0.0 | 0.0 | 0.00 | 0.32 | 0.32 | 81 | 1010.9 |
| 20260505234836 | 52 | 46 | 0.0 | 0.0 | 0.00 | 0.32 | 0.32 | 81 | 1011.0 |
| 20260505234334 | 53 | 46 | 0.0 | 0.0 | 0.00 | 0.32 | 0.32 | 82 | 1011.0 |
| 20260505233830 | 52 | 46 | 0.0 | 0.0 | 0.00 | 0.32 | 0.32 | 81 | 1011.0 |
| 20260505233329 | 52 | 46 | 0.0 | 0.0 | 0.00 | 0.32 | 0.32 | 81 | 1010.9 |
| 20260505232825 | 52 | 46 | 0.0 | 0.0 | 0.00 | 0.32 | 0.32 | 82 | 1011.0 |
| 20260505232323 | 52 | 46 | 0.0 | 0.0 | 0.00 | 0.32 | 0.32 | 82 | 1011.2 |
| 20260505231819 | 52 | 46 | 0.0 | 0.0 | 0.00 | 0.32 | 0.32 | 81 | 1010.9 |
| 20260505231318 | 52 | 46 | 0.0 | 0.0 | 0.00 | 0.32 | 0.32 | 81 | 1011.2 |
| 20260505230816 | 52 | 46 | 0.0 | 0.0 | 0.00 | 0.32 | 0.32 | 79 | 1011.2 |
| 20260505230313 | 52 | 46 | 0.0 | 0.0 | 0.00 | 0.32 | 0.32 | 80 | 1011.2 |
| 20260505225809 | 53 | 46 | 0.0 | 0.0 | 0.00 | 0.32 | 0.32 | 79 | 1010.8 |
| 20260505225307 | 53 | 46 | 0.0 | 0.0 | 0.00 | 0.32 | 0.32 | 80 | 1010.8 |
| 20260505224802 | 53 | 46 | 0.0 | 0.0 | 0.00 | 0.32 | 0.32 | 79 | 1010.8 |
| 20260505224300 | 53 | 46 | 0.0 | 0.0 | 0.00 | 0.32 | 0.32 | 78 | 1010.6 |
| 20260505223757 | 53 | 46 | 0.0 | 0.0 | 0.00 | 0.32 | 0.32 | 78 | 1010.9 |
| 20260505223254 | 52 | 46 | 0.0 | 0.0 | 0.00 | 0.32 | 0.32 | 77 | 1011.0 |
| 20260505222749 | 52 | 46 | 0.0 | 0.0 | 0.00 | 0.32 | 0.32 | 78 | 1011.1 |
| 20260505222246 | 52 | 46 | 0.0 | 0.0 | 0.00 | 0.32 | 0.32 | 78 | 1010.9 |
| 20260505221743 | 52 | 46 | 0.0 | 0.0 | 0.00 | 0.32 | 0.32 | 79 | 1010.9 |
| 20260505221240 | 52 | 47 | 0.0 | 0.0 | 0.00 | 0.32 | 0.32 | 78 | 1010.9 |
| 20260505220736 | 52 | 47 | 0.0 | 0.0 | 0.00 | 0.32 | 0.32 | 80 | 1010.7 |
| 20260505220234 | 52 | 47 | 0.0 | 0.0 | 0.00 | 0.32 | 0.32 | 80 | 1010.9 |
| 20260505215732 | 52 | 46 | 0.0 | 0.0 | 0.00 | 0.32 | 0.32 | 80 | 1011.0 |
| 20260505215229 | 52 | 47 | 0.0 | 0.0 | 0.00 | 0.32 | 0.32 | 78 | 1010.9 |
| 20260505214727 | 52 | 47 | 0.0 | 0.0 | 0.00 | 0.32 | 0.32 | 79 | 1011.3 |
| 20260505214224 | 52 | 47 | 0.0 | 0.0 | 0.00 | 0.32 | 0.32 | 79 | 1011.2 |
| 20260505213721 | 52 | 47 | 0.0 | 0.0 | 0.00 | 0.32 | 0.32 | 77 | 1011.1 |
| 20260505213219 | 52 | 48 | 0.0 | 0.0 | 0.00 | 0.32 | 0.32 | 76 | 1010.9 |
| 20260505212714 | 52 | 48 | 0.0 | 0.0 | 0.00 | 0.32 | 0.32 | 79 | 1011.2 |
| 20260505212212 | 52 | 48 | 0.0 | 0.0 | 0.00 | 0.32 | 0.32 | 77 | 1011.0 |
| 20260505211709 | 52 | 49 | 0.0 | 0.0 | 0.00 | 0.32 | 0.32 | 76 | 1010.9 |
| 20260505211206 | 52 | 48 | 0.0 | 0.0 | 0.00 | 0.32 | 0.32 | 76 | 1011.1 |
| 20260505210703 | 52 | 29 | 1.0 | 1.0 | 0.00 | 0.32 | 0.32 | 75 | 1011.5 |
| 20260505210159 | 52 | 50 | 0.0 | 0.0 | 0.00 | 0.32 | 0.32 | 76 | 1011.2 |
| 20260505205657 | 52 | 49 | 0.0 | 0.0 | 0.00 | 0.32 | 0.32 | 76 | 1011.3 |
| 20260505205155 | 52 | 49 | 0.0 | 0.0 | 0.00 | 0.32 | 0.32 | 76 | 1011.4 |
| 20260505204651 | 51 | 53 | 0.0 | 0.0 | 0.00 | 0.32 | 0.32 | 77 | 1011.3 |
| 20260505204149 | 51 | 49 | 1.0 | 1.0 | 0.00 | 0.32 | 0.32 | 76 | 1011.4 |
| 20260505203646 | 51 | 49 | 1.0 | 1.0 | 0.00 | 0.32 | 0.32 | 75 | 1011.6 |
| 20260505203142 | 51 | 47 | 0.0 | 1.0 | 0.00 | 0.32 | 0.32 | 76 | 1011.5 |
| 20260505202637 | 51 | 37 | 0.0 | 2.0 | 0.00 | 0.32 | 0.32 | 76 | 1011.2 |
| 20260505202134 | 51 | 50 | 0.0 | 1.0 | 0.00 | 0.32 | 0.32 | 79 | 1011.5 |
| 20260505201626 | 51 | 45 | 0.0 | 1.0 | 0.00 | 0.32 | 0.32 | 79 | 1011.2 |
| 20260505201123 | 51 | 50 | 0.0 | 0.0 | 0.00 | 0.32 | 0.32 | 80 | 1011.4 |
| 20260505200621 | 51 | 54 | 0.0 | 2.0 | 0.00 | 0.32 | 0.32 | 79 | 1011.4 |
| 20260505200118 | 51 | 66 | 0.0 | 0.0 | 0.00 | 0.32 | 0.32 | 87 | 1011.7 |
| 20260505195614 | 51 | 51 | 0.0 | 1.0 | 0.00 | 0.32 | 0.32 | 87 | 1011.8 |
| 20260505195111 | 51 | 48 | 0.0 | 0.0 | 0.00 | 0.32 | 0.32 | 88 | 1011.6 |
| 20260505194608 | 51 | 64 | 0.0 | 0.0 | 0.00 | 0.32 | 0.32 | 87 | 1011.5 |
| 20260505194104 | 51 | 71 | 0.0 | 0.0 | 0.00 | 0.32 | 0.32 | 86 | 1011.8 |
| 20260505193601 | 50 | 55 | 0.0 | 1.0 | 0.00 | 0.32 | 0.32 | 87 | 1011.6 |
| 20260505193058 | 50 | 54 | 0.0 | 0.0 | 0.00 | 0.32 | 0.32 | 88 | 1011.7 |
| 20260505192557 | 50 | 64 | 0.0 | 0.0 | 0.00 | 0.32 | 0.32 | 85 | 1011.7 |
| 20260505192054 | 50 | 64 | 0.0 | 0.0 | 0.00 | 0.32 | 0.32 | 86 | 1011.7 |
| 20260505191552 | 49 | 64 | 0.0 | 0.0 | 0.00 | 0.32 | 0.32 | 85 | 1011.5 |
| 20260505191049 | 49 | 64 | 0.0 | 0.0 | 0.00 | 0.32 | 0.32 | 85 | 1011.8 |
| 20260505190544 | 49 | 70 | 0.0 | 0.0 | 0.00 | 0.32 | 0.32 | 86 | 1011.7 |
| 20260505190041 | 50 | 68 | 0.0 | 0.0 | 0.00 | 0.32 | 0.32 | 86 | 1011.6 |
| 20260505185538 | 49 | 82 | 0.0 | 0.0 | 0.00 | 0.32 | 0.32 | 83 | 1011.6 |
| 20260505185034 | 49 | 97 | 0.0 | 0.0 | 0.00 | 0.32 | 0.32 | 87 | 1011.5 |
| 20260505184531 | 49 | 64 | 0.0 | 0.0 | 0.00 | 0.32 | 0.32 | 88 | 1011.7 |
| 20260505184028 | 49 | 67 | 0.0 | 1.0 | 0.00 | 0.32 | 0.32 | 88 | 1011.7 |
| 20260505183524 | 49 | 99 | 0.0 | 0.0 | 0.00 | 0.32 | 0.32 | 90 | 1011.8 |
| 20260505183022 | 48 | 85 | 0.0 | 0.0 | 0.00 | 0.32 | 0.32 | 90 | 1011.7 |
| 20260505182518 | 49 | 98 | 0.0 | 0.0 | 0.00 | 0.32 | 0.32 | 92 | 1011.8 |
| 20260505182014 | 49 | 107 | 0.0 | 0.0 | 0.00 | 0.32 | 0.32 | 91 | 1011.7 |
| 20260505181511 | 49 | 90 | 0.0 | 0.0 | 0.00 | 0.32 | 0.32 | 92 | 1011.9 |
| 20260505181008 | 48 | 94 | 0.0 | 0.0 | 0.00 | 0.32 | 0.32 | 91 | 1011.9 |
| 20260505180503 | 48 | 90 | 0.0 | 0.0 | 0.00 | 0.32 | 0.32 | 92 | 1012.2 |
| 20260505180001 | 48 | 61 | 0.0 | 0.0 | 0.00 | 0.32 | 0.32 | 91 | 1012.2 |
| 20260505175456 | 48 | 75 | 0.0 | 0.0 | 0.00 | 0.32 | 0.32 | 93 | 1012.2 |
| 20260505174954 | 48 | 90 | 0.0 | 0.0 | 0.00 | 0.32 | 0.32 | 93 | 1012.1 |
| 20260505174451 | 48 | 81 | 0.0 | 0.0 | 0.00 | 0.32 | 0.32 | 94 | 1012.0 |
| 20260505173947 | 48 | 70 | 0.0 | 0.0 | 0.00 | 0.32 | 0.32 | 94 | 1012.2 |
| 20260505173443 | 48 | 95 | 0.0 | 0.0 | 0.00 | 0.32 | 0.32 | 93 | 1012.0 |
| 20260505172940 | 48 | 72 | 0.0 | 0.0 | 0.00 | 0.32 | 0.32 | 94 | 1012.2 |
| 20260505172439 | 48 | 61 | 0.0 | 0.0 | 0.00 | 0.32 | 0.32 | 92 | 1012.2 |
| 20260505171938 | 48 | 54 | 0.0 | 1.0 | 0.00 | 0.32 | 0.32 | 92 | 1012.3 |
| 20260505171435 | 48 | 60 | 0.0 | 0.0 | 0.00 | 0.32 | 0.32 | 94 | 1012.7 |
| 20260505170932 | 48 | 59 | 0.0 | 0.0 | 0.00 | 0.32 | 0.32 | 94 | 1012.4 |
| 20260505170428 | 48 | 57 | 0.0 | 0.0 | 0.00 | 0.32 | 0.32 | 94 | 1012.7 |
| 20260505165924 | 48 | 61 | 0.0 | 0.0 | 0.07 | 0.32 | 0.32 | 94 | 1012.4 |
| 20260505165420 | 48 | 64 | 0.0 | 0.0 | 0.00 | 0.31 | 0.31 | 94 | 1012.1 |
| 20260505164915 | 48 | 65 | 0.0 | 0.0 | 0.00 | 0.31 | 0.31 | 94 | 1012.1 |
| 20260505164412 | 48 | 67 | 0.0 | 0.0 | 0.00 | 0.31 | 0.31 | 94 | 1012.1 |
| 20260505163910 | 48 | 72 | 0.0 | 0.0 | 0.00 | 0.31 | 0.31 | 94 | 1012.1 |
| 20260505163409 | 49 | 59 | 0.0 | 0.0 | 0.00 | 0.31 | 0.31 | 95 | 1012.2 |
| 20260505162908 | 48 | 70 | 0.0 | 0.0 | 0.05 | 0.31 | 0.31 | 94 | 1012.3 |
| 20260505162403 | 48 | 71 | 0.0 | 0.0 | 0.05 | 0.31 | 0.31 | 93 | 1012.2 |
| 20260505161900 | 47 | 70 | 0.0 | 0.0 | 0.00 | 0.30 | 0.30 | 91 | 1012.1 |
| 20260505161357 | 47 | 75 | 0.0 | 1.0 | 0.00 | 0.30 | 0.30 | 90 | 1012.1 |
| 20260505160854 | 47 | 61 | 0.0 | 0.0 | 0.00 | 0.30 | 0.30 | 92 | 1012.4 |
| 20260505160352 | 48 | 54 | 0.0 | 0.0 | 0.00 | 0.30 | 0.30 | 92 | 1012.7 |
| 20260505153331 | 47 | 73 | 0.0 | 0.0 | 0.07 | 0.30 | 0.30 | 97 | 1012.3 |
| 20260505152828 | 47 | 64 | 0.0 | 0.0 | 0.00 | 0.29 | 0.29 | 97 | 1012.0 |
| 20260505152325 | 47 | 66 | 0.0 | 0.0 | 0.07 | 0.29 | 0.29 | 97 | 1012.3 |
| 20260505151820 | 47 | 66 | 0.0 | 0.0 | 0.07 | 0.29 | 0.29 | 96 | 1012.1 |
| 20260505151317 | 47 | 66 | 0.0 | 0.0 | 0.00 | 0.28 | 0.28 | 95 | 1012.4 |
| 20260505150814 | 47 | 71 | 0.0 | 0.0 | 0.00 | 0.28 | 0.28 | 97 | 1012.1 |
| 20260505150311 | 47 | 72 | 0.0 | 0.0 | 0.00 | 0.28 | 0.28 | 97 | 1011.6 |
| 20260505140240 | 47 | 64 | 0.0 | 0.0 | 0.17 | 0.22 | 0.22 | 97 | 1012.0 |
| 20260505130204 | 47 | 48 | 0.0 | 2.0 | 0.00 | 0.10 | 0.10 | 88 | 1010.5 |
| 20260505124654 | 47 | 61 | 0.0 | 0.0 | 0.00 | 0.10 | 0.10 | 88 | 1010.1 |
| 20260505124151 | 47 | 58 | 0.0 | 0.0 | 0.07 | 0.10 | 0.10 | 88 | 1009.9 |
| 20260505123647 | 47 | 62 | 0.0 | 0.0 | 0.07 | 0.10 | 0.10 | 86 | 1010.0 |
| 20260505123144 | 47 | 55 | 0.0 | 0.0 | 0.12 | 0.09 | 0.09 | 85 | 1009.9 |
| 20260505122640 | 48 | 61 | 0.0 | 0.0 | 0.12 | 0.08 | 0.08 | 82 | 1009.5 |
| 20260505122138 | 48 | 60 | 0.0 | 0.0 | 0.12 | 0.07 | 0.07 | 79 | 1009.4 |
| 20260505121628 | 49 | 56 | 0.0 | 3.0 | 0.12 | 0.06 | 0.06 | 76 | 1008.9 |
| 20260505121125 | 50 | 43 | 2.0 | 2.0 | 0.12 | 0.05 | 0.05 | 70 | 1008.8 |
| 20260505120621 | 51 | 59 | 0.0 | 1.0 | 0.07 | 0.04 | 0.04 | 66 | 1009.2 |
| 20260505120117 | 52 | 62 | 0.0 | 0.0 | 0.00 | 0.03 | 0.03 | 62 | 1009.6 |
| 20260505115612 | 52 | 67 | 0.0 | 1.0 | 0.00 | 0.03 | 0.03 | 56 | 1009.6 |
| 20260505115110 | 53 | 60 | 0.0 | 3.0 | 0.00 | 0.03 | 0.03 | 54 | 1008.9 |
| 20260505114606 | 53 | 58 | 0.0 | 1.0 | 0.00 | 0.03 | 0.03 | 54 | 1009.3 |